Regional Weather Roundup
Issued by NWS

Home | Current Version | Previous Version | Text Only | Print | Product List | Glossary Off
Versions: 1 2 3 4 5 6 7 8 9 10 11 12 13 14 15 16 17 18 19 20 21 22 23 24 25 26 27 28 29 30 31 32 33 34 35 36 37 38 39 40 41 42 43 44 45 46 47 48 49 50

000
ASUS43 KDTX 211201
RWRMI
MICHIGAN HOURLY REGIONAL WEATHER ROUNDUP
NATIONAL WEATHER SERVICE DETROIT/PONTIAC MI
800 AM EDT THU SEP 21 2017

NOTE: "FAIR" INDICATES FEW OR NO CLOUDS BELOW 12,000 FEET WITH NO
SIGNIFICANT WEATHER AND/OR OBSTRUCTION TO VISIBILITY.

MIZ047>049-052>055-059>063-066>070-074>076-081>083-211300-
SOUTHEAST LOWER MICHIGAN

CITY           SKY/WX    TMP DP  RH WIND       PRES   REMARKS
ADRIAN         PTCLDY    67  65  93 SW3       30.07S FOG
6HR MIN TEMP:  64; 6HR MAX TEMP:  67;

ALMA           PTCLDY    70  66  88 S9        30.03R
6HR MIN TEMP:  68; 6HR MAX TEMP:  70;

ANN ARBOR      CLEAR     66  66 100 CALM      30.06S FOG
BAD AXE        CLEAR     68  63  84 S6        30.06S
6HR MIN TEMP:  66; 6HR MAX TEMP:  69;

CARO           CLEAR     67  63  85 SE5       30.03S
DETROIT CITY   PTCLDY    68  66  93 CALM      30.07R
6HR MIN TEMP:  65; 6HR MAX TEMP:  68;

DETROIT        MOCLDY    68  67  96 S3        30.07R FOG
6HR MIN TEMP:  67; 6HR MAX TEMP:  69;

FLINT          PTCLDY    69  65  86 S8        30.05R
6HR MIN TEMP:  63; 6HR MAX TEMP:  69;

GROSSE ILE     CLEAR     70  68  94 S6        30.06R FOG
6HR MIN TEMP:  66; 6HR MAX TEMP:  71;

HILLSDALE      CLOUDY    64  64 100 S3        30.07R FOG
HOWELL         CLEAR     67  65  93 S7        30.06R FOG
6HR MIN TEMP:  66; 6HR MAX TEMP:  68;


CITY           SKY/WX    TMP DP  RH WIND       PRES   REMARKS
JACKSON        PTCLDY    69  66  90 CALM      30.06R FOG
6HR MIN TEMP:  68; 6HR MAX TEMP:  71;

LAMBERTVILLE   CLEAR     68  66  92 CALM      30.07R FOG
6HR MIN TEMP:  65; 6HR MAX TEMP:  68;

LANSING        CLEAR     70  66  87 S6        30.04R
6HR MIN TEMP:  69; 6HR MAX TEMP:  72;

LAPEER         FAIR      67  64  92 SE5       30.06S
6HR MIN TEMP:  61; 6HR MAX TEMP:  67;

MASON          CLEAR     68  65  91 SE3       30.06R FOG
MONROE         CLEAR     69  66  92 S7        30.06R FOG
MT. CLEMENS    MOCLDY    68  68 100 E3        30.06R FOG
6HR MIN TEMP:  62; 6HR MAX TEMP:  68;

PONTIAC        PTCLDY    68  66  93 SE6       30.06R FOG
6HR MIN TEMP:  64; 6HR MAX TEMP:  68;

PORT HURON     PTCLDY    64  64 100 CALM      30.08S FOG
TRI CITIES     PTCLDY    69  67  93 S3        30.05R
6HR MIN TEMP:  69; 6HR MAX TEMP:  71;

MIDLAND        FAIR      68  67  97 CALM      30.02S
6HR MIN TEMP:  65; 6HR MAX TEMP:  72;

TROY           CLEAR     67  65  93 CALM      30.09R FOG
SAGINAW HB     PTCLDY    66  63  88 CALM      30.04R
$$
MIZ043>046-050>051-056>058-064>065-071>073-077>080-211300-
SOUTHWEST LOWER MICHIGAN

CITY           SKY/WX    TMP DP  RH WIND       PRES   REMARKS
BATTLE CREEK   PTCLDY    71  69  93 S7        30.05R
6HR MIN TEMP:  70; 6HR MAX TEMP:  73;

BENTON HARBOR  CLOUDY    72  67  84 S7        30.00S
6HR MIN TEMP:  70; 6HR MAX TEMP:  75;

BIG RAPIDS     PTCLDY    66  64  93 W5        30.04R FOG
6HR MIN TEMP:  65; 6HR MAX TEMP:  68;

COLDWATER      CLOUDY    70  70 100 CALM      30.06R FOG
6HR MIN TEMP:  68; 6HR MAX TEMP:  71;

FREMONT        FAIR      68  68 100 CALM      30.02R FOG
HOLLAND        CLOUDY    69  66  90 SE3       30.00R
6HR MIN TEMP:  68; 6HR MAX TEMP:  74;

GRAND RAPIDS   CLOUDY    70  68  93 S3        30.01R
6HR MIN TEMP:  68; 6HR MAX TEMP:  73;

IONIA          FAIR      70  67  92 S6        30.02S
6HR MIN TEMP:  67; 6HR MAX TEMP:  71;

KALAMAZOO      CLEAR     71  67  87 S7        30.04R FOG
6HR MIN TEMP:  70; 6HR MAX TEMP:  73;

LUDINGTON      PTCLDY    65  63  93 CALM      30.00R
6HR MIN TEMP:  64; 6HR MAX TEMP:  73;

MARSHALL       CLOUDY    70  69  98 S5        30.05R
6HR MIN TEMP:  68; 6HR MAX TEMP:  70;

MOUNT PLEASANT CLOUDY    68  66  93 N3        30.03R FOG
6HR MIN TEMP:  66; 6HR MAX TEMP:  72;

MUSKEGON       CLOUDY    71  67  87 CALM      30.00R
6HR MIN TEMP:  71; 6HR MAX TEMP:  78;

SOUTH HAVEN    CLEAR     72  69  90 S5        30.00S
$$
MIZ016>042-211300-
NORTHERN LOWER MICHIGAN

CITY           SKY/WX    TMP DP  RH WIND       PRES   REMARKS
ALPENA         CLOUDY    67  67 100 S8        30.03F FOG
6HR MIN TEMP:  63; 6HR MAX TEMP:  69;

BEAVER ISLAND  CLOUDY    67  66  99 CALM      30.00S FOG
6HR MIN TEMP:  66; 6HR MAX TEMP:  69;

BELLAIRE       CLOUDY    66  64  95 CALM      30.01R FOG
6HR MIN TEMP:  64; 6HR MAX TEMP:  71;

CADILLAC       CLOUDY    66  63  90 CALM      30.03S
CHARLEVOIX     MOCLDY    68  68 100 SE5       30.03R
6HR MIN TEMP:  66; 6HR MAX TEMP:  72;

FRANKFORT      CLOUDY    66  66 100 CALM      30.00R
GAYLORD        CLOUDY    65  63  93 S3        30.03F FOG
6HR MIN TEMP:  64; 6HR MAX TEMP:  69; 6HR PCP:  0.01;

GRAYLING       CLOUDY    65  63  91 CALM      30.04R FOG
6HR MIN TEMP:  64; 6HR MAX TEMP:  69;

HARBOR SPRINGS CLOUDY    67  66  94 NE5       30.00S
HOUGHTON LAKE  PTCLDY    66  64  93 CALM      30.04S
6HR MIN TEMP:  65; 6HR MAX TEMP:  70;

MANISTEE       CLOUDY    65  64  97 CALM      30.00R
OSCODA         MOCLDY    67  67 100 CALM      30.05S FOG
6HR MIN TEMP:  62; 6HR MAX TEMP:  69;

PELLSTON       CLOUDY    67  66  97 CALM      30.01F
6HR MIN TEMP:  66; 6HR MAX TEMP:  71; 6HR PCP: TRACE;

ROGERS CITY    PTCLDY    68  65  91 S7        30.02S
TRAVERSE CITY  CLOUDY    71  65  81 CALM      29.98R
6HR MIN TEMP:  71; 6HR MAX TEMP:  78;

$$
MIZ007>008-015-211300-
EASTERN UPPER MICHIGAN

CITY           SKY/WX    TMP DP  RH WIND       PRES   REMARKS
KINROSS        MOCLDY    65  65 100 W5        30.02R FOG
6HR MIN TEMP:  65; 6HR MAX TEMP:  67;

MACKINAC ISLAN MOCLDY    68  68 100 S7        30.00S
6HR MIN TEMP:  66; 6HR MAX TEMP:  69; 6HR PCP:  0.12;

NEWBERRY       CLOUDY    65  64  97 CALM      30.01S FOG
6HR MIN TEMP:  63; 6HR MAX TEMP:  65;

S. S. MARIE    MOCLDY    67  66  97 W3        30.01R FOG
6HR MIN TEMP:  66; 6HR MAX TEMP:  69; 6HR PCP:  0.08;

MUNISING         N/A     62  62 100 NW5       30.04R
6HR MIN TEMP:  62; 6HR MAX TEMP:  65;

$$
MIZ004>006-011>014-085-211300-
CENTRAL UPPER MICHIGAN

CITY           SKY/WX    TMP DP  RH WIND       PRES   REMARKS
MANISTIQUE     CLOUDY    65  59  82 CALM      30.02R HAZE
6HR MIN TEMP:  63; 6HR MAX TEMP:  66;

ESCANABA       CLOUDY    62  61  96 NW6       30.02R FOG
6HR MIN TEMP:  62; 6HR MAX TEMP:  67;

MENOMINEE      CLOUDY    66  61  84 N8        30.02R
6HR MIN TEMP:  66; 6HR MAX TEMP:  69;

SAWYER-GWINN   CLEAR     57  57 100 N8        30.06R
$$
MIZ001>003-009>011-084-211300-
WESTERN UPPER MICHIGAN

CITY           SKY/WX    TMP DP  RH WIND       PRES   REMARKS
IRON MOUNTAIN  FOG       55  52  89 CALM      30.04R VSB<1/4
6HR MIN TEMP:  53; 6HR MAX TEMP:  67;

HOUGHTON       CLEAR     47  45  93 NE3       30.05R FOG
6HR MIN TEMP:  45; 6HR MAX TEMP:  56;

COPPER HARBOR    N/A     58  56  93 CALM      30.05R
6HR MIN TEMP:  55; 6HR MAX TEMP:  60;

IRONWOOD       PTCLDY    41  41 100 CALM      30.06R
6HR MIN TEMP:  40; 6HR MAX TEMP:  50;

$$

ABBREVIATIONS USED IN REMARKS
   TC - TEMPERATURE IN CELSIUS
  WCI - WIND CHILL INDEX
   HX - HEAT INDEX
  VSB - VISIBILITY





USA.gov is the U.S. government's official web portal to all federal, state and local government web resources and services.